Year,Month,Day,Hour,Minute,Value (Times are PST for temperature in C)
2008,09,03,00,00,12.40
2008,09,03,00,01,12.40
2008,09,03,00,02,12.40
2008,09,03,00,03,12.40
2008,09,03,00,04,12.40
2008,09,03,00,05,12.50
2008,09,03,00,06,12.50
2008,09,03,00,07,12.50
2008,09,03,00,08,12.50
2008,09,03,00,09,12.50
2008,09,03,00,10,12.50
2008,09,03,00,11,12.50
2008,09,03,00,12,12.50
2008,09,03,00,13,12.50
2008,09,03,00,14,12.50
2008,09,03,00,15,12.50
2008,09,03,00,16,12.40
2008,09,03,00,17,12.40
2008,09,03,00,18,12.40
2008,09,03,00,19,12.40
2008,09,03,00,20,12.40
2008,09,03,00,21,12.40
2008,09,03,00,22,12.40
2008,09,03,00,23,12.40
2008,09,03,00,24,12.40
2008,09,03,00,25,12.30
2008,09,03,00,26,12.30
2008,09,03,00,27,12.30
2008,09,03,00,28,12.30
2008,09,03,00,29,12.30
2008,09,03,00,30,12.30
2008,09,03,00,31,12.30
2008,09,03,00,32,12.30
2008,09,03,00,33,12.30
2008,09,03,00,34,12.30
2008,09,03,00,35,12.30
2008,09,03,00,36,12.30
2008,09,03,00,37,12.30
2008,09,03,00,38,12.40
2008,09,03,00,39,12.40
2008,09,03,00,40,12.40
2008,09,03,00,41,12.40
2008,09,03,00,42,12.40
2008,09,03,00,43,12.40
2008,09,03,00,44,12.40
2008,09,03,00,45,12.40
2008,09,03,00,46,12.40
2008,09,03,00,47,12.40
2008,09,03,00,48,12.40
2008,09,03,00,49,12.50
2008,09,03,00,50,12.50
2008,09,03,00,51,12.50
2008,09,03,00,52,12.50
2008,09,03,00,53,12.50
2008,09,03,00,54,12.50
2008,09,03,00,55,12.50
2008,09,03,00,56,12.50
2008,09,03,00,57,12.50
2008,09,03,00,58,12.50
2008,09,03,00,59,12.50
2008,09,03,01,00,12.50
2008,09,03,01,01,12.50
2008,09,03,01,02,12.50
2008,09,03,01,03,12.60
2008,09,03,01,04,12.60
2008,09,03,01,05,12.60
2008,09,03,01,06,12.60
2008,09,03,01,07,12.60
2008,09,03,01,08,12.50
2008,09,03,01,09,12.50
2008,09,03,01,10,12.50
2008,09,03,01,11,12.50
2008,09,03,01,12,12.50
2008,09,03,01,13,12.40
2008,09,03,01,14,12.40
2008,09,03,01,15,12.40
2008,09,03,01,16,12.30
2008,09,03,01,17,12.30
2008,09,03,01,18,12.30
2008,09,03,01,19,12.30
2008,09,03,01,20,12.30
2008,09,03,01,21,12.30
2008,09,03,01,22,12.30
2008,09,03,01,23,12.30
2008,09,03,01,24,12.30
2008,09,03,01,25,12.30
2008,09,03,01,26,12.30
2008,09,03,01,27,12.30
2008,09,03,01,28,12.30
2008,09,03,01,29,12.20
2008,09,03,01,30,12.20
2008,09,03,01,31,12.20
2008,09,03,01,32,12.20
2008,09,03,01,33,12.20
2008,09,03,01,34,12.20
2008,09,03,01,35,12.10
2008,09,03,01,36,12.10
2008,09,03,01,37,12.10
2008,09,03,01,38,12.10
2008,09,03,01,39,12.10
2008,09,03,01,40,12.10
2008,09,03,01,41,12.10
2008,09,03,01,42,12.10
2008,09,03,01,43,12.10
2008,09,03,01,44,12.10
2008,09,03,01,45,12.10
2008,09,03,01,46,12.10
2008,09,03,01,47,12.00
2008,09,03,01,48,12.00
2008,09,03,01,49,12.00
2008,09,03,01,50,12.00
2008,09,03,01,51,12.00
2008,09,03,01,52,12.00
2008,09,03,01,53,12.00
2008,09,03,01,54,12.00
2008,09,03,01,55,12.00
2008,09,03,01,56,11.90
2008,09,03,01,57,11.90
2008,09,03,01,58,11.90
2008,09,03,01,59,11.90
2008,09,03,02,00,11.90
2008,09,03,02,01,11.90
2008,09,03,02,02,11.90
2008,09,03,02,03,11.90
2008,09,03,02,04,11.90
2008,09,03,02,05,11.80
2008,09,03,02,06,11.80
2008,09,03,02,07,11.80
2008,09,03,02,08,11.80
2008,09,03,02,09,11.90
2008,09,03,02,10,11.90
2008,09,03,02,11,11.90
2008,09,03,02,12,11.90
2008,09,03,02,13,11.90
2008,09,03,02,14,11.90
2008,09,03,02,15,11.90
2008,09,03,02,16,11.90
2008,09,03,02,17,11.90
2008,09,03,02,18,11.90
2008,09,03,02,19,11.80
2008,09,03,02,20,11.80
2008,09,03,02,21,11.80
2008,09,03,02,22,11.80
2008,09,03,02,23,11.80
2008,09,03,02,24,11.80
2008,09,03,02,25,11.80
2008,09,03,02,26,11.70
2008,09,03,02,27,11.70
2008,09,03,02,28,11.70
2008,09,03,02,29,11.70
2008,09,03,02,30,11.60
2008,09,03,02,31,11.60
2008,09,03,02,32,11.60
2008,09,03,02,33,11.60
2008,09,03,02,34,11.60
2008,09,03,02,35,11.60
2008,09,03,02,36,11.60
2008,09,03,02,37,11.60
2008,09,03,02,38,11.60
2008,09,03,02,39,11.60
2008,09,03,02,40,11.60
2008,09,03,02,41,11.60
2008,09,03,02,42,11.60
2008,09,03,02,43,11.60
2008,09,03,02,44,11.60
2008,09,03,02,45,11.60
2008,09,03,02,46,11.60
2008,09,03,02,47,11.70
2008,09,03,02,48,11.70
2008,09,03,02,49,11.70
2008,09,03,02,50,11.70
2008,09,03,02,51,11.70
2008,09,03,02,52,11.70
2008,09,03,02,53,11.70
2008,09,03,02,54,11.70
2008,09,03,02,55,11.70
2008,09,03,02,56,11.70
2008,09,03,02,57,11.70
2008,09,03,02,58,11.70
2008,09,03,02,59,11.70
2008,09,03,03,00,11.60
2008,09,03,03,01,11.60
2008,09,03,03,02,11.60
2008,09,03,03,03,11.60
2008,09,03,03,04,11.60
2008,09,03,03,05,11.60
2008,09,03,03,06,11.60
2008,09,03,03,07,11.60
2008,09,03,03,08,11.60
2008,09,03,03,09,11.60
2008,09,03,03,10,11.60
2008,09,03,03,11,11.70
2008,09,03,03,12,11.70
2008,09,03,03,13,11.80
2008,09,03,03,14,11.80
2008,09,03,03,15,11.80
2008,09,03,03,16,11.90
2008,09,03,03,17,11.90
2008,09,03,03,18,12.00
2008,09,03,03,19,12.00
2008,09,03,03,20,12.10
2008,09,03,03,21,12.10
2008,09,03,03,22,12.20
2008,09,03,03,23,12.20
2008,09,03,03,24,12.30
2008,09,03,03,25,12.30
2008,09,03,03,26,12.30
2008,09,03,03,27,12.40
2008,09,03,03,28,12.40
2008,09,03,03,29,12.50
2008,09,03,03,30,12.60
2008,09,03,03,31,12.60
2008,09,03,03,32,12.60
2008,09,03,03,33,12.70
2008,09,03,03,34,12.70
2008,09,03,03,35,12.80
2008,09,03,03,36,12.80
2008,09,03,03,37,12.80
2008,09,03,03,38,12.80
2008,09,03,03,39,12.80
2008,09,03,03,40,12.80
2008,09,03,03,41,12.80
2008,09,03,03,42,12.80
2008,09,03,03,43,12.80
2008,09,03,03,44,12.80
2008,09,03,03,45,12.80
2008,09,03,03,46,12.80
2008,09,03,03,47,12.80
2008,09,03,03,48,12.80
2008,09,03,03,49,12.70
2008,09,03,03,50,12.60
2008,09,03,03,51,12.60
2008,09,03,03,52,12.50
2008,09,03,03,53,12.50
2008,09,03,03,54,12.40
2008,09,03,03,55,12.40
2008,09,03,03,56,12.30
2008,09,03,03,57,12.30
2008,09,03,03,58,12.30
2008,09,03,03,59,12.20
2008,09,03,04,00,12.20
2008,09,03,04,01,12.10
2008,09,03,04,02,12.10
2008,09,03,04,03,12.00
2008,09,03,04,04,12.00
2008,09,03,04,05,11.90
2008,09,03,04,06,11.90
2008,09,03,04,07,11.90
2008,09,03,04,08,11.80
2008,09,03,04,09,11.80
2008,09,03,04,50,11.80
2008,09,03,05,37,12.00
2008,09,03,06,03,11.90
2008,09,03,06,07,11.80
2008,09,03,06,08,11.80
2008,09,03,06,09,11.80
2008,09,03,06,10,11.80
2008,09,03,06,46,11.70
2008,09,03,07,33,12.00
2008,09,03,08,21,12.90
2008,09,03,09,06,13.60
2008,09,03,09,51,14.20
2008,09,03,10,17,14.60
2008,09,03,10,19,14.70
2008,09,03,10,20,14.70
2008,09,03,10,21,14.70
2008,09,03,10,22,14.70
2008,09,03,10,23,14.80
2008,09,03,10,24,14.80
2008,09,03,10,25,14.80
2008,09,03,10,26,14.80
2008,09,03,10,27,14.80
2008,09,03,10,28,14.80
2008,09,03,10,29,14.80
2008,09,03,10,30,14.80
2008,09,03,10,31,14.90
2008,09,03,10,32,14.90
2008,09,03,10,33,14.90
2008,09,03,10,34,14.90
2008,09,03,10,35,14.80
2008,09,03,10,36,14.80
2008,09,03,10,37,14.80
2008,09,03,10,38,14.90
2008,09,03,10,39,14.90
2008,09,03,10,40,14.90
2008,09,03,10,41,14.90
2008,09,03,10,42,14.90
2008,09,03,10,43,15.00
2008,09,03,10,44,15.00
2008,09,03,10,45,15.00
2008,09,03,10,46,15.10
2008,09,03,10,47,15.10
2008,09,03,10,48,15.10
2008,09,03,10,49,15.10
2008,09,03,10,50,15.10
2008,09,03,10,51,15.10
2008,09,03,10,52,15.10
2008,09,03,10,53,15.20
2008,09,03,10,54,15.10
2008,09,03,10,55,15.10
2008,09,03,10,56,15.10
2008,09,03,10,57,15.10
2008,09,03,10,58,15.00
2008,09,03,10,59,15.00
2008,09,03,11,00,15.00
2008,09,03,11,01,14.90
2008,09,03,11,02,14.90
2008,09,03,11,03,14.80
2008,09,03,11,04,14.80
2008,09,03,11,05,14.80
2008,09,03,11,06,14.80
2008,09,03,11,07,14.80
2008,09,03,11,08,14.80
2008,09,03,11,09,14.80
2008,09,03,11,10,14.90
2008,09,03,11,11,14.90
2008,09,03,11,12,15.00
2008,09,03,11,13,15.00
2008,09,03,11,14,15.00
2008,09,03,11,15,15.10
2008,09,03,11,16,15.10
2008,09,03,11,17,15.10
2008,09,03,11,18,15.10
2008,09,03,11,19,15.20
2008,09,03,11,20,15.30
2008,09,03,11,21,15.30
2008,09,03,11,22,15.30
2008,09,03,11,23,15.20
2008,09,03,11,24,15.10
2008,09,03,11,25,15.10
2008,09,03,11,26,15.10
2008,09,03,11,27,15.10
2008,09,03,11,28,15.10
2008,09,03,11,29,15.30
2008,09,03,11,30,15.40
2008,09,03,11,31,15.40
2008,09,03,11,32,15.50
2008,09,03,11,33,15.50
2008,09,03,11,34,15.50
2008,09,03,11,35,15.60
2008,09,03,11,36,15.60
2008,09,03,11,37,15.60
2008,09,03,11,38,15.60
2008,09,03,11,39,15.70
2008,09,03,11,40,15.70
2008,09,03,11,41,15.80
2008,09,03,11,42,15.80
2008,09,03,11,43,15.80
2008,09,03,11,44,15.70
2008,09,03,11,45,15.70
2008,09,03,11,46,15.70
2008,09,03,11,47,15.70
2008,09,03,11,48,15.70
2008,09,03,11,49,15.80
2008,09,03,11,50,15.80
2008,09,03,11,51,15.90
2008,09,03,11,52,16.00
2008,09,03,11,53,16.10
2008,09,03,11,54,16.10
2008,09,03,11,55,16.10
2008,09,03,11,56,16.20
2008,09,03,11,57,16.30
2008,09,03,11,58,16.30
2008,09,03,11,59,16.30
2008,09,03,12,00,16.30
2008,09,03,12,01,16.20
2008,09,03,12,02,16.20
2008,09,03,12,03,16.10
2008,09,03,12,04,16.10
2008,09,03,12,05,16.10
2008,09,03,12,06,16.10
2008,09,03,12,07,16.10
2008,09,03,12,08,16.10
2008,09,03,12,09,16.10
2008,09,03,12,10,16.20
2008,09,03,12,11,16.20
2008,09,03,12,12,16.20
2008,09,03,12,13,16.30
2008,09,03,12,14,16.20
2008,09,03,12,15,16.20
2008,09,03,12,16,16.30
2008,09,03,12,17,16.30
2008,09,03,12,18,16.30
2008,09,03,12,19,16.30
2008,09,03,12,20,16.30
2008,09,03,12,21,16.30
2008,09,03,12,22,16.30
2008,09,03,12,23,16.30
2008,09,03,12,24,16.30
2008,09,03,12,25,16.30
2008,09,03,12,26,16.30
2008,09,03,12,27,16.30
2008,09,03,12,28,16.30
2008,09,03,12,29,16.30
2008,09,03,12,30,16.40
2008,09,03,12,31,16.40
2008,09,03,12,32,16.40
2008,09,03,12,33,16.40
2008,09,03,12,34,16.30
2008,09,03,12,35,16.10
2008,09,03,12,36,15.90
2008,09,03,12,37,15.80
2008,09,03,12,38,15.80
2008,09,03,12,39,15.80
2008,09,03,12,40,15.80
2008,09,03,12,41,15.80
2008,09,03,12,42,15.80
2008,09,03,12,43,15.80
2008,09,03,12,44,15.80
2008,09,03,12,45,15.80
2008,09,03,12,46,15.90
2008,09,03,12,47,15.90
2008,09,03,12,48,15.90
2008,09,03,12,49,15.90
2008,09,03,12,50,15.90
2008,09,03,12,51,15.90
2008,09,03,12,52,15.90
2008,09,03,12,53,16.10
2008,09,03,12,54,16.10
2008,09,03,12,55,16.20
2008,09,03,12,56,16.20
2008,09,03,12,57,16.30
2008,09,03,12,58,16.40
2008,09,03,12,59,16.40
2008,09,03,13,00,16.40
2008,09,03,13,01,16.40
2008,09,03,13,02,16.30
2008,09,03,13,03,16.20
2008,09,03,13,04,16.10
2008,09,03,13,05,16.10
2008,09,03,13,06,16.00
2008,09,03,13,07,15.90
2008,09,03,13,08,15.80
2008,09,03,13,09,15.80
2008,09,03,13,10,15.70
2008,09,03,13,11,15.70
2008,09,03,13,12,15.70
2008,09,03,13,13,15.70
2008,09,03,13,14,15.70
2008,09,03,13,15,15.70
2008,09,03,13,16,15.80
2008,09,03,13,17,15.80
2008,09,03,13,18,15.80
2008,09,03,13,19,15.80
2008,09,03,13,20,15.80
2008,09,03,13,21,15.80
2008,09,03,13,22,15.80
2008,09,03,13,23,15.80
2008,09,03,13,24,15.80
2008,09,03,13,25,15.80
2008,09,03,13,26,15.80
2008,09,03,13,27,15.80
2008,09,03,13,28,15.80
2008,09,03,13,29,15.80
2008,09,03,13,30,15.80
2008,09,03,13,31,15.80
2008,09,03,13,32,15.80
2008,09,03,13,33,15.80
2008,09,03,13,34,15.70
2008,09,03,13,35,15.80
2008,09,03,13,36,15.80
2008,09,03,13,37,15.80
2008,09,03,13,38,15.80
2008,09,03,13,39,15.90
2008,09,03,13,40,15.90
2008,09,03,13,41,15.90
2008,09,03,13,42,16.10
2008,09,03,13,43,16.10
2008,09,03,13,44,16.10
2008,09,03,13,45,16.10
2008,09,03,13,46,16.10
2008,09,03,13,47,16.10
2008,09,03,13,48,16.10
2008,09,03,13,49,16.10
2008,09,03,13,50,16.10
2008,09,03,13,51,16.20
2008,09,03,13,52,16.20
2008,09,03,13,53,16.20
2008,09,03,13,54,16.10
2008,09,03,13,55,16.10
2008,09,03,13,56,16.10
2008,09,03,13,57,16.00
2008,09,03,13,58,15.90
2008,09,03,13,59,15.80
2008,09,03,14,00,15.80
2008,09,03,14,01,15.80
2008,09,03,14,02,15.90
2008,09,03,14,03,15.90
2008,09,03,14,04,16.00
2008,09,03,14,05,16.10
2008,09,03,14,06,16.10
2008,09,03,14,07,16.20
2008,09,03,14,08,16.30
2008,09,03,14,09,16.30
2008,09,03,14,10,16.30
2008,09,03,14,11,16.30
2008,09,03,14,12,16.30
2008,09,03,14,13,16.30
2008,09,03,14,14,16.30
2008,09,03,14,15,16.30
2008,09,03,14,16,16.30
2008,09,03,14,17,16.30
2008,09,03,14,18,16.30
2008,09,03,14,19,16.30
2008,09,03,14,20,16.30
2008,09,03,14,21,16.30
2008,09,03,14,22,16.30
2008,09,03,14,23,16.40
2008,09,03,14,24,16.40
2008,09,03,14,25,16.40
2008,09,03,14,26,16.40
2008,09,03,14,27,16.40
2008,09,03,14,28,16.40
2008,09,03,14,29,16.40
2008,09,03,14,30,16.40
2008,09,03,14,31,16.50
2008,09,03,14,32,16.60
2008,09,03,14,33,16.60
2008,09,03,14,34,16.60
2008,09,03,14,35,16.60
2008,09,03,14,36,16.60
2008,09,03,14,37,16.60
2008,09,03,14,38,16.60
2008,09,03,14,39,16.60
2008,09,03,14,40,16.60
2008,09,03,14,41,16.60
2008,09,03,14,42,16.60
2008,09,03,14,43,16.50
2008,09,03,14,44,16.40
2008,09,03,14,45,16.40
2008,09,03,14,46,16.40
2008,09,03,14,47,16.40
2008,09,03,14,48,16.40
2008,09,03,14,49,16.40
2008,09,03,14,50,16.40
2008,09,03,14,51,16.40
2008,09,03,14,52,16.30
2008,09,03,14,53,16.30
2008,09,03,14,54,16.30
2008,09,03,14,55,16.20
2008,09,03,14,56,16.20
2008,09,03,14,57,16.20
2008,09,03,14,58,16.20
2008,09,03,14,59,16.30
2008,09,03,15,00,16.30
2008,09,03,15,01,16.30
2008,09,03,15,02,16.20
2008,09,03,15,03,16.20
2008,09,03,15,04,16.20
2008,09,03,15,05,16.30
2008,09,03,15,06,16.30
2008,09,03,15,07,16.40
2008,09,03,15,08,16.40
2008,09,03,15,09,16.50
2008,09,03,15,10,16.60
2008,09,03,15,11,16.70
2008,09,03,15,12,16.70
2008,09,03,15,13,16.70
2008,09,03,15,14,16.70
2008,09,03,15,15,16.70
2008,09,03,15,16,16.70
2008,09,03,15,17,16.70
2008,09,03,15,18,16.70
2008,09,03,15,19,16.70
2008,09,03,15,20,16.80
2008,09,03,15,21,16.90
2008,09,03,15,22,17.00
2008,09,03,15,23,17.00
2008,09,03,15,24,17.00
2008,09,03,15,25,17.10
2008,09,03,15,26,17.10
2008,09,03,15,27,17.20
2008,09,03,15,28,17.20
2008,09,03,15,29,17.10
2008,09,03,15,30,17.10
2008,09,03,15,31,17.10
2008,09,03,15,32,17.20
2008,09,03,15,33,17.20
2008,09,03,15,34,17.20
2008,09,03,15,35,17.20
2008,09,03,15,36,17.20
2008,09,03,15,37,17.20
2008,09,03,15,38,17.20
2008,09,03,15,39,17.10
2008,09,03,15,40,17.00
2008,09,03,15,41,16.90
2008,09,03,15,42,16.80
2008,09,03,15,43,16.80
2008,09,03,15,44,16.90
2008,09,03,15,45,16.90
2008,09,03,15,46,17.00
2008,09,03,15,47,17.00
2008,09,03,15,48,17.10
2008,09,03,15,49,17.10
2008,09,03,15,50,17.20
2008,09,03,15,51,17.20
2008,09,03,15,52,17.30
2008,09,03,15,53,17.30
2008,09,03,15,54,17.30
2008,09,03,15,55,17.30
2008,09,03,15,56,17.30
2008,09,03,15,57,17.30
2008,09,03,15,58,17.30
2008,09,03,15,59,17.30
2008,09,03,16,00,17.30
2008,09,03,16,01,17.30
2008,09,03,16,02,17.30
2008,09,03,16,03,17.30
2008,09,03,16,04,17.30
2008,09,03,16,05,17.40
2008,09,03,16,06,17.40
2008,09,03,16,07,17.40
2008,09,03,16,08,17.40
2008,09,03,16,09,17.40
2008,09,03,16,10,17.40
2008,09,03,16,11,17.50
2008,09,03,16,12,17.50
2008,09,03,16,13,17.60
2008,09,03,16,14,17.70
2008,09,03,16,15,17.70
2008,09,03,16,16,17.70
2008,09,03,16,17,17.70
2008,09,03,16,18,17.70
2008,09,03,16,19,17.80
2008,09,03,16,20,17.80
2008,09,03,16,21,17.80
2008,09,03,16,22,17.90
2008,09,03,16,23,17.90
2008,09,03,16,24,17.90
2008,09,03,16,25,17.80
2008,09,03,16,26,17.80
2008,09,03,16,27,17.80
2008,09,03,16,28,17.70
2008,09,03,16,29,17.70
2008,09,03,16,30,17.70
2008,09,03,16,31,17.70
2008,09,03,16,32,17.70
2008,09,03,16,33,17.70
2008,09,03,16,34,17.80
2008,09,03,16,35,17.80
2008,09,03,16,36,17.70
2008,09,03,16,37,17.70
2008,09,03,16,38,17.80
2008,09,03,16,39,17.80
2008,09,03,16,40,17.80
2008,09,03,16,41,17.80
2008,09,03,16,42,17.80
2008,09,03,16,43,17.70
2008,09,03,16,44,17.70
2008,09,03,16,45,17.70
2008,09,03,16,46,17.80
2008,09,03,16,47,17.80
2008,09,03,16,48,17.80
2008,09,03,16,49,17.70
2008,09,03,16,50,17.80
2008,09,03,16,51,17.80
2008,09,03,16,52,17.80
2008,09,03,16,53,17.80
2008,09,03,16,54,17.80
2008,09,03,16,55,17.80
2008,09,03,16,56,17.80
2008,09,03,16,57,17.80
2008,09,03,16,58,17.80
2008,09,03,16,59,17.80
2008,09,03,17,00,17.80
2008,09,03,17,01,17.80
2008,09,03,17,02,17.80
2008,09,03,17,03,17.80
2008,09,03,17,04,17.80
2008,09,03,17,05,17.70
2008,09,03,17,06,17.70
2008,09,03,17,07,17.70
2008,09,03,17,08,17.70
2008,09,03,17,09,17.80
2008,09,03,17,10,17.80
2008,09,03,17,11,17.90
2008,09,03,17,12,18.00
2008,09,03,17,13,18.10
2008,09,03,17,14,18.10
2008,09,03,17,15,18.10
2008,09,03,17,16,18.10
2008,09,03,17,17,18.10
2008,09,03,17,18,18.00
2008,09,03,17,19,17.90
2008,09,03,17,20,17.90
2008,09,03,17,21,18.00
2008,09,03,17,22,17.90
2008,09,03,17,23,17.70
2008,09,03,17,24,17.60
2008,09,03,17,25,17.50
2008,09,03,17,26,17.50
2008,09,03,17,27,17.30
2008,09,03,17,28,17.30
2008,09,03,17,29,17.30
2008,09,03,17,30,17.30
2008,09,03,17,31,17.30
2008,09,03,17,32,17.30
2008,09,03,17,33,17.40
2008,09,03,17,34,17.50
2008,09,03,17,35,17.60
2008,09,03,17,36,17.70
2008,09,03,17,37,17.80
2008,09,03,17,38,17.80
2008,09,03,17,39,17.80
2008,09,03,17,40,17.80
2008,09,03,17,41,17.80
2008,09,03,17,42,17.80
2008,09,03,17,43,17.90
2008,09,03,17,44,18.10
2008,09,03,17,45,18.20
2008,09,03,17,46,18.40
2008,09,03,17,47,18.60
2008,09,03,17,48,18.70
2008,09,03,17,49,18.80
2008,09,03,17,50,18.90
2008,09,03,17,51,18.90
2008,09,03,17,52,18.90
2008,09,03,17,53,18.90
2008,09,03,17,54,18.90
2008,09,03,17,55,19.00
2008,09,03,17,56,19.10
2008,09,03,17,57,19.10
2008,09,03,17,58,19.10
2008,09,03,17,59,19.10
2008,09,03,18,00,18.90
2008,09,03,18,01,18.90
2008,09,03,18,02,18.90
2008,09,03,18,03,18.90
2008,09,03,18,04,18.90
2008,09,03,18,05,18.90
2008,09,03,18,06,18.90
2008,09,03,18,07,18.90
2008,09,03,18,08,18.90
2008,09,03,18,09,18.90
2008,09,03,18,10,18.90
2008,09,03,18,11,18.90
2008,09,03,18,12,18.90
2008,09,03,18,13,18.90
2008,09,03,18,14,18.90
2008,09,03,18,15,18.90
2008,09,03,18,16,19.00
2008,09,03,18,17,19.10
2008,09,03,18,18,19.10
2008,09,03,18,19,19.10
2008,09,03,18,20,19.10
2008,09,03,18,21,18.90
2008,09,03,18,22,18.90
2008,09,03,18,23,18.80
2008,09,03,18,24,18.70
2008,09,03,18,25,18.70
2008,09,03,18,26,18.60
2008,09,03,18,27,18.50
2008,09,03,18,28,18.50
2008,09,03,18,29,18.40
2008,09,03,18,30,18.40
2008,09,03,18,31,18.30
2008,09,03,18,32,18.20
2008,09,03,18,33,18.10
2008,09,03,18,34,18.10
2008,09,03,18,35,17.90
2008,09,03,18,36,17.90
2008,09,03,18,37,17.80
2008,09,03,18,38,17.70
2008,09,03,18,39,17.60
2008,09,03,18,40,17.50
2008,09,03,18,41,17.50
2008,09,03,18,42,17.40
2008,09,03,18,43,17.30
2008,09,03,18,44,17.30
2008,09,03,18,45,17.30
2008,09,03,18,46,17.30
2008,09,03,18,47,17.30
2008,09,03,18,48,17.30
2008,09,03,18,49,17.40
2008,09,03,18,50,17.40
2008,09,03,18,51,17.40
2008,09,03,18,52,17.40
2008,09,03,18,53,17.40
2008,09,03,18,54,17.40
2008,09,03,18,55,17.40
2008,09,03,18,56,17.40
2008,09,03,18,57,17.40
2008,09,03,18,58,17.40
2008,09,03,18,59,17.40
2008,09,03,19,00,17.40
2008,09,03,19,01,17.40
2008,09,03,19,02,17.40
2008,09,03,19,03,17.40
2008,09,03,19,04,17.40
2008,09,03,19,05,17.40
2008,09,03,19,06,17.40
2008,09,03,19,07,17.40
2008,09,03,19,08,17.40
2008,09,03,19,09,17.30
2008,09,03,19,10,17.40
2008,09,03,19,11,17.40
2008,09,03,19,12,17.30
2008,09,03,19,13,17.30
2008,09,03,19,14,17.30
2008,09,03,19,15,17.30
2008,09,03,19,16,17.30
2008,09,03,19,17,17.20
2008,09,03,19,18,17.20
2008,09,03,19,19,17.10
2008,09,03,19,20,17.10
2008,09,03,19,21,17.10
2008,09,03,19,22,17.10
2008,09,03,19,23,17.10
2008,09,03,19,24,17.00
2008,09,03,19,25,17.00
2008,09,03,19,26,17.00
2008,09,03,19,27,16.90
2008,09,03,19,28,16.90
2008,09,03,19,29,16.90
2008,09,03,19,30,16.90
2008,09,03,19,31,16.80
2008,09,03,19,32,16.80
2008,09,03,19,33,16.80
2008,09,03,19,34,16.80
2008,09,03,19,35,16.70
2008,09,03,19,36,16.70
2008,09,03,19,37,16.60
2008,09,03,19,38,16.50
2008,09,03,19,39,16.40
2008,09,03,19,40,16.40
2008,09,03,19,41,16.40
2008,09,03,19,42,16.30
2008,09,03,19,43,16.30
2008,09,03,19,44,16.30
2008,09,03,19,45,16.30
2008,09,03,19,46,16.20
2008,09,03,19,47,16.10
2008,09,03,19,48,16.10
2008,09,03,19,49,16.10
2008,09,03,19,50,16.10
2008,09,03,19,51,16.00
2008,09,03,19,52,15.90
2008,09,03,19,53,15.90
2008,09,03,19,54,15.80
2008,09,03,19,55,15.80
2008,09,03,19,56,15.80
2008,09,03,19,57,15.70
2008,09,03,19,58,15.70
2008,09,03,19,59,15.60
2008,09,03,20,00,15.60
2008,09,03,20,01,15.60
2008,09,03,20,02,15.60
2008,09,03,20,03,15.60
2008,09,03,20,04,15.60
2008,09,03,20,05,15.50
2008,09,03,20,06,15.50
2008,09,03,20,07,15.50
2008,09,03,20,08,15.50
2008,09,03,20,09,15.40
2008,09,03,20,10,15.40
2008,09,03,20,11,15.40
2008,09,03,20,12,15.40
2008,09,03,20,13,15.30
2008,09,03,20,14,15.30
2008,09,03,20,15,15.30
2008,09,03,20,16,15.30
2008,09,03,20,17,15.20
2008,09,03,20,18,15.20
2008,09,03,20,19,15.20
2008,09,03,20,20,15.10
2008,09,03,20,21,15.10
2008,09,03,20,22,15.10
2008,09,03,20,23,15.10
2008,09,03,20,24,15.10
2008,09,03,20,25,15.00
2008,09,03,20,26,15.00
2008,09,03,20,27,15.00
2008,09,03,20,28,15.00
2008,09,03,20,29,15.00
2008,09,03,20,30,15.00
2008,09,03,20,31,15.00
2008,09,03,20,32,15.00
2008,09,03,20,33,15.00
2008,09,03,20,34,15.00
2008,09,03,20,35,15.00
2008,09,03,20,36,14.90
2008,09,03,20,37,14.90
2008,09,03,20,38,14.90
2008,09,03,20,39,14.90
2008,09,03,20,40,14.90
2008,09,03,20,41,14.90
2008,09,03,20,42,14.90
2008,09,03,20,43,14.90
2008,09,03,20,44,14.90
2008,09,03,20,45,14.90
2008,09,03,20,46,14.90
2008,09,03,20,47,14.80
2008,09,03,20,48,14.80
2008,09,03,20,49,14.80
2008,09,03,20,50,14.80
2008,09,03,20,51,14.80
2008,09,03,20,52,14.80
2008,09,03,20,53,14.80
2008,09,03,20,54,14.80
2008,09,03,20,55,14.70
2008,09,03,20,56,14.70
2008,09,03,20,57,14.70
2008,09,03,20,58,14.60
2008,09,03,20,59,14.60
2008,09,03,21,00,14.60
2008,09,03,21,01,14.50
2008,09,03,21,02,14.50
2008,09,03,21,03,14.50
2008,09,03,21,04,14.50
2008,09,03,21,05,14.50
2008,09,03,21,06,14.50
2008,09,03,21,07,14.50
2008,09,03,21,08,14.50
2008,09,03,21,09,14.50
2008,09,03,21,10,14.50
2008,09,03,21,11,14.40
2008,09,03,21,12,14.40
2008,09,03,21,13,14.40
2008,09,03,21,14,14.40
2008,09,03,21,15,14.40
2008,09,03,21,16,14.30
2008,09,03,21,17,14.30
2008,09,03,21,18,14.30
2008,09,03,21,19,14.20
2008,09,03,21,20,14.20
2008,09,03,21,21,14.20
2008,09,03,21,22,14.20
2008,09,03,21,23,14.20
2008,09,03,21,24,14.20
2008,09,03,21,25,14.20
2008,09,03,21,26,14.20
2008,09,03,21,27,14.20
2008,09,03,21,28,14.20
2008,09,03,21,29,14.20
2008,09,03,21,30,14.20
2008,09,03,21,31,14.20
2008,09,03,21,32,14.20
2008,09,03,21,33,14.20
2008,09,03,21,34,14.20
2008,09,03,21,35,14.20
2008,09,03,21,36,14.20
2008,09,03,21,37,14.20
2008,09,03,21,38,14.20
2008,09,03,21,39,14.20
2008,09,03,21,40,14.20
2008,09,03,21,41,14.20
2008,09,03,21,42,14.20
2008,09,03,21,43,14.20
2008,09,03,21,44,14.20
2008,09,03,21,45,14.30
2008,09,03,21,46,14.30
2008,09,03,21,47,14.30
2008,09,03,21,48,14.30
2008,09,03,21,49,14.30
2008,09,03,21,50,14.40
2008,09,03,21,51,14.40
2008,09,03,21,52,14.40
2008,09,03,21,53,14.30
2008,09,03,21,54,14.30
2008,09,03,21,55,14.30
2008,09,03,21,56,14.30
2008,09,03,21,57,14.30
2008,09,03,21,58,14.30
2008,09,03,21,59,14.30
2008,09,03,22,00,14.30
2008,09,03,22,01,14.20
2008,09,03,22,02,14.20
2008,09,03,22,03,14.20
2008,09,03,22,04,14.20
2008,09,03,22,05,14.20
2008,09,03,22,06,14.20
2008,09,03,22,07,14.20
2008,09,03,22,08,14.20
2008,09,03,22,09,14.20
2008,09,03,22,10,14.20
2008,09,03,22,11,14.20
2008,09,03,22,12,14.20
2008,09,03,22,13,14.20
2008,09,03,22,14,14.20
2008,09,03,22,15,14.20
2008,09,03,22,16,14.10
2008,09,03,22,17,14.10
2008,09,03,22,18,14.00
2008,09,03,22,19,14.00
2008,09,03,22,20,14.00
2008,09,03,22,21,13.90
2008,09,03,22,22,13.90
2008,09,03,22,23,13.90
2008,09,03,22,24,13.90
2008,09,03,22,25,13.90
2008,09,03,22,26,13.90
2008,09,03,22,27,13.90
2008,09,03,22,28,13.90
2008,09,03,22,29,13.80
2008,09,03,22,30,13.80
2008,09,03,22,31,13.80
2008,09,03,22,32,13.80
2008,09,03,22,33,13.80
2008,09,03,22,34,13.80
2008,09,03,22,35,13.80
2008,09,03,22,36,13.80
2008,09,03,22,37,13.80
2008,09,03,22,38,13.80
2008,09,03,22,39,13.80
2008,09,03,22,40,13.80
2008,09,03,22,41,13.80
2008,09,03,22,42,13.80
2008,09,03,22,43,13.80
2008,09,03,22,44,13.80
2008,09,03,22,45,13.80
2008,09,03,22,46,13.80
2008,09,03,22,47,13.80
2008,09,03,22,48,13.90
2008,09,03,22,49,13.90
2008,09,03,22,50,13.90
2008,09,03,22,51,13.90
2008,09,03,22,52,13.90
2008,09,03,22,53,13.80
2008,09,03,22,54,13.80
2008,09,03,22,55,13.80
2008,09,03,22,56,13.80
2008,09,03,22,57,13.80
2008,09,03,22,58,13.80
2008,09,03,22,59,13.70
2008,09,03,23,00,13.70
2008,09,03,23,01,13.70
2008,09,03,23,02,13.70
2008,09,03,23,03,13.70
2008,09,03,23,04,13.70
2008,09,03,23,05,13.70
2008,09,03,23,06,13.70
2008,09,03,23,07,13.70
2008,09,03,23,08,13.70
2008,09,03,23,09,13.70
2008,09,03,23,10,13.70
2008,09,03,23,11,13.70
2008,09,03,23,12,13.70
2008,09,03,23,13,13.70
2008,09,03,23,14,13.70
2008,09,03,23,15,13.80